Strona główna
METAR-TAF:

METAR-TAF

Lotnisko :

Platforma wiertnicza

J6-a, Holandia

Szerokość geograficzna: 53-49-27N, Długość geograficzna: 2-56-43E, wysokość: 34 m

Aktualna obserwacja pogody

Raport powstał 20 minut temu, godzina 06:25 UTC
Wiatr 20 kt od wschód
Temperatura 14°C
Wilgotność 82%
Ciśnienie 1025 hPa
Widzialność 10 km lub więcej

METAR: EHJA 010625Z AUTO 08020KT 9999 NSC 14/11 Q1025

czas: 08:45 (06:45 UTC)


TAF: brakujący

Obserwacja i prognoza pogody dla ponad 4000 lotnisk (raport METAR i TAF).

Dostępne stacje oznaczono żółtymi i czerwonymi punktami na mapie.

Najedź kursorem aby zobaczyć nazwę stacji.

Kliknij aby zobaczyć obserwacje i prognozy pogody.

Aby zmienić mapę: kliknij na zielony przycisk z czarnym krzyżykiem, aby powiększyć; na zielony przycisk z myślnikiem, aby pomniejszyć; na zielone strzałki, aby przejść do map sąsiednich.


METAR-TAF: